Main page
METAR-TAF:

METAR-TAF

Airports :

Gaines County Airport

Seminole, Texas, United States

latitude: 32-40-31N, longitude: 102-39-09W, elevation: 3313 ft

Current weather observation

The report was made 23 minutes ago, at 23:15 UTC
Wind 9 mph from the Southeast
Temperature 57°F
Humidity 100%
Pressure 30.19 in. Hg
Visibility: 2.5 miles
Broken clouds at a height of 600 ft
Overcast at a height of 1000 ft
mist

METAR: KGNC 232315Z AUTO 13008KT 2 1/2SM BR BKN006 OVC010 14/14 A3019 RMK AO2 T01440144

Time: 18:38 (23:38 UTC)


TAF: missing

Weather observations and forecasts of more than 4000 airports (METAR and TAF reports).

The available stations are represented by yellow and red dots on the map.

Hover mouse over dot to see the name of the station.

Then click to see weather observations and forecasts.

To change the map : click on the green buttons with a black cross to zoom in, on the green button with a dash to zoom out, or on the green arrows for adjacent maps.


METAR-TAF: